Printer-friendly version

IAU Minor Planet Center

Minor Planet Center

MPEC 2006-H40 : 2006 HR30

The following Minor Planet Electronic Circular may be linked-to from your own Web pages, but must not otherwise be redistributed electronically.


Read MPEC 2006-H39 Read MPEC 2006-H41


M.P.E.C. 2006-H40                                Issued 2006 Apr. 26, 15:43 UT

     The Minor Planet Electronic Circulars contain information on unusual
         minor planets and routine data on comets.  They are published
   on behalf of Commission 20 of the International Astronomical Union by the
          Minor Planet Center, Smithsonian Astrophysical Observatory,
                          Cambridge, MA 02138, U.S.A.

                  Supported in part by the Brinson Foundation
                  Supported in part by the TABASGO Foundation
             Prepared using the Tamkin Foundation Computer Network

                              MPC@CFA.HARVARD.EDU
          URL http://cfa-www.harvard.edu/iau/mpc.html  ISSN 1523-6714

                                   2006 HR30

Observations:
     K06H30R  C2005 07 06.64835 20 08 25.90 -31 25 10.5          19.0 V EH040E12
     K06H30R  C2005 07 06.66458 20 08 25.11 -31 25 11.4          19.3 V EH040E12
     K06H30R  C2005 07 06.68075 20 08 24.39 -31 25 12.0          19.3 V EH040E12
     K06H30R  C2005 07 06.69693 20 08 23.71 -31 25 13.3          19.4 V EH040E12
     K06H30R  C2005 07 29.60410 19 50 39.87 -31 32 42.9          18.7 V EH040E12
     K06H30R  C2005 07 29.61500 19 50 39.22 -31 32 43.0          19.1 V EH040E12
     K06H30R  C2005 07 29.62591 19 50 38.72 -31 32 43.1          19.0 V EH040E12
     K06H30R  C2005 07 29.63681 19 50 38.22 -31 32 42.0          19.0 V EH040E12
     K06H30R  C2005 10 02.10411 19 20 19.59 -29 10 55.8          19.1 R EH040644
     K06H30R  C2005 10 02.12568 19 20 19.59 -29 10 51.6          19.1 R EH040644
     K06H30R  C2005 10 02.14705 19 20 19.56 -29 10 47.2          19.2 R EH040644
     K06H30R* C2006 04 20.78181 22 04 31.90 -09 04 14.9          18.7 V EH040E12
     K06H30R  C2006 04 20.78821 22 04 32.26 -09 04 11.7          17.4 V EH040E12
     K06H30R  C2006 04 20.79462 22 04 32.62 -09 04 08.0          18.0 V EH040E12
     K06H30R  C2006 04 20.80109 22 04 32.88 -09 04 05.3          18.3 V EH040E12
     K06H30R  C2006 04 21.78357 22 05 27.81 -08 54 26.3          18.3 V EH040E12
     K06H30R  C2006 04 21.78780 22 05 28.10 -08 54 23.5          18.2 V EH040E12
     K06H30R  C2006 04 21.79199 22 05 28.35 -08 54 22.3          18.5 V EH040E12
     K06H30R  C2006 04 21.79619 22 05 28.50 -08 54 19.3          18.1 V EH040E12
     K06H30R  C2006 04 21.81199 22 05 29.44 -08 54 09.4          17.8 V EH040E12
     K06H30R  C2006 04 24.78525 22 08 13.88 -08 24 42.8          18.2 V EH040E12
     K06H30R  C2006 04 24.79208 22 08 14.24 -08 24 39.2          18.0 V EH040E12
     K06H30R  C2006 04 24.79890 22 08 14.60 -08 24 34.3          18.3 V EH040E12
     K06H30R  C2006 04 24.80568 22 08 14.96 -08 24 30.3          18.0 V EH040E12
     K06H30R  C2006 04 25.78845 22 09 08.74 -08 14 40.6          18.0 V EH040E12
     K06H30R  C2006 04 25.79818 22 09 09.28 -08 14 34.1          18.1 V EH040E12
     K06H30R  C2006 04 25.80795 22 09 09.72 -08 14 28.1          17.9 V EH040E12

Observer details:
644 Palomar Mountain/NEAT.  Observers R. Bambery, E. F. Helin, S. Pravdo, K.
    Lawrence, M. Hicks, R. Thicksten.  1.2-m Schmidt + CCD.
E12 Siding Spring Survey.  Observers R. H. McNaught, G. J. Garradd.  Measurers
    E. C. Beshore, E. J. Christensen, G. J. Garradd, A. R. Gibbs, A. D. Grauer,
    R. E. Hill, R. A. Kowalski, S. M. Larson, R. H. McNaught.  0.5-m Uppsala
    Schmidt + CCD.

Orbital elements:
2006 HR30                                                Earth MOID = 0.4522 AU
Epoch 2006 Mar. 6.0 TT = JDT 2453800.5                  MPC
M 346.35406              (2000.0)            P               Q
n   0.04514043     Peri.  117.42181     +0.28200198     -0.86977065
a   7.8119399      Node   309.95388     +0.58143889     +0.49066276
e   0.8430187      Incl.   31.88736     +0.76315379     -0.05243159
P  21.83           H   11.9           G   0.15           U   3
Residuals in seconds of arc
050706 E12  0.5+  0.2-    051002 644  0.1-  0.0     060421 E12  0.7-  0.3-
050706 E12  0.5-  0.2-    051002 644  0.3-  0.0     060421 E12  0.3+  0.3+
050706 E12  0.6-  0.0     060420 E12  0.4+  0.9+    060424 E12  0.3+  0.3-
050706 E12  0.2-  0.4-    060420 E12  0.5+  0.4+    060424 E12  0.1+  0.8-
050729 E12  1.3+  0.4+    060420 E12  0.6+  0.3+    060424 E12  0.0   0.0
050729 E12  0.3-  0.0     060420 E12  0.9-  0.8-    060424 E12  0.1-  0.0
050729 E12  0.0   0.3-    060421 E12  0.6-  0.1+    060425 E12  0.1+  0.3-
050729 E12  0.4+  0.5+    060421 E12  0.2+  0.4+    060425 E12  0.3+  0.3+
051002 644  0.3-  0.3+    060421 E12  0.5+  0.8-    060425 E12  0.9-  0.4+

Ephemeris:
2006 HR30                a,e,i = 7.81, 0.84, 32                  q = 1.2263
Date    TT    R. A. (2000) Decl.     Delta      r     Elong.  Phase     V
2006 04 25    22 08.42   -08 22.6    3.586    3.264    63.5    16.0    18.1
2006 05 05    22 17.28   -06 40.1    3.364    3.174    70.6    17.4    18.0
2006 05 15    22 25.50   -04 52.2    3.136    3.083    77.7    18.7    17.8
2006 05 25    22 32.95   -02 58.2    2.907    2.991    84.8    19.7    17.6
2006 06 04    22 39.44   -00 57.2    2.677    2.898    92.1    20.5    17.4
2006 06 14    22 44.76   +01 11.5    2.451    2.805    99.5    20.9    17.1
2006 06 24    22 48.63   +03 29.3    2.231    2.710   107.1    21.0    16.8
2006 07 04    22 50.68   +05 57.3    2.020    2.615   114.8    20.7    16.5
2006 07 14    22 50.50   +08 36.4    1.821    2.520   122.7    19.8    16.2
2006 07 24    22 47.57   +11 27.3    1.637    2.424   130.6    18.6    15.8
2006 08 03    22 41.36   +14 28.5    1.472    2.328   138.0    17.0    15.5
2006 08 13    22 31.42   +17 36.3    1.329    2.231   144.2    15.4    15.1
2006 08 23    22 17.55   +20 42.8    1.211    2.135   147.6    14.7    14.8
2006 09 02    22 00.14   +23 36.0    1.119    2.039   146.6    15.8    14.6
2006 09 12    21 40.47   +26 03.3    1.054    1.944   141.3    18.9    14.4
2006 09 22    21 20.55   +27 55.9    1.011    1.850   133.3    23.3    14.4
2006 10 02    21 02.79   +29 13.9    0.987    1.758   124.3    28.1    14.3
2006 10 12    20 49.13   +30 06.8    0.975    1.669   115.4    32.7    14.3
2006 10 22    20 40.73   +30 48.2    0.969    1.583   107.4    36.9    14.3
2006 11 01    20 38.08   +31 32.2    0.963    1.503   100.4    40.5    14.3
2006 11 11    20 41.19   +32 30.6    0.953    1.429    94.7    43.7    14.3
2006 11 21    20 50.08   +33 51.1    0.936    1.364    90.2    46.4    14.2
2006 12 01    21 05.09   +35 39.5    0.911    1.309    87.2    48.8    14.1
2006 12 11    21 26.95   +37 57.5    0.877    1.267    85.5    50.8    14.0
2006 12 21    21 57.25   +40 41.2    0.839    1.239    85.2    52.3    13.9
2006 12 31    22 38.40   +43 37.1    0.800    1.227    86.3    53.1    13.8
2007 01 10    23 32.99   +46 11.5    0.767    1.231    88.5    53.0    13.7
2007 01 20    00 41.31   +47 26.9    0.750    1.252    91.4    51.8    13.7
2007 01 30    01 57.26   +46 25.0    0.757    1.288    94.4    49.7    13.7
2007 02 09    03 09.52   +42 56.7    0.795    1.337    96.7    47.1    13.8
2007 02 19    04 10.36   +37 57.6    0.867    1.398    97.6    44.5    14.0
2007 03 01    04 59.00   +32 38.2    0.970    1.468    97.0    42.1    14.3
2007 03 11    05 37.97   +27 41.9    1.098    1.546    95.2    39.8    14.6
2007 03 21    06 10.12   +23 23.9    1.247    1.629    92.4    37.7    15.0
2007 03 31    06 37.58   +19 43.9    1.413    1.716    89.1    35.6    15.3
2007 04 10    07 01.77   +16 35.7    1.590    1.807    85.2    33.5    15.6
2007 04 20    07 23.64   +13 52.1    1.776    1.900    81.1    31.5    15.9
2007 04 30    07 43.82   +11 26.8    1.967    1.995    76.8    29.4    16.2
2007 05 10    08 02.69   +09 14.6    2.163    2.091    72.3    27.4    16.4
2007 05 20    08 20.54   +07 11.7    2.360    2.187    67.7    25.3    16.6
2007 05 30    08 37.56   +05 15.2    2.557    2.283    63.0    23.3    16.8

Gareth V. Williams           (C) Copyright 2006 MPC           M.P.E.C. 2006-H40

Read MPEC 2006-H39 Read MPEC 2006-H41


Our Web policy. Index to the CBAT/MPC/ICQ pages.


Valid HTML 4.01!